Regional Weather Roundup
Issued by NWS

Home | Current Version | Previous Version | Graphics & Text | Print | Product List | Glossary On
Versions: 1 2 3 4 5 6 7 8 9 10 11 12 13 14 15 16 17 18 19 20 21 22 23 24 25 26 27 28 29 30 31 32 33 34 35 36 37 38 39 40 41 42 43 44 45 46 47 48 49 50
379
ASUS44 KMEG 260610
RWRTN
TENNESSEE HOURLY STATE WEATHER ROUNDUP
NATIONAL WEATHER SERVICE MEMPHIS TN
100 AM CDT WED APR 26 2017

TNZ002-004-019-021-049-052-054-088>092-260700-
WEST TENNESSEE

CITY           SKY/WX    TMP DP  RH WIND       PRES   REMARKS
MEMPHIS INTL   PTCLDY    68  55  63 S12       29.63S
NWS MEMPHIS      N/A     66 N/A N/A MISG        N/A
JACKSON        CLEAR     65  56  72 S8          N/A
DYERSBURG      CLEAR     68  55  63 S7        29.62S
SOMERVILLE     CLEAR     64  55  72 S6        29.63S
UNION CITY     CLEAR     66  55  68 S10       29.60F
BOLIVAR        CLEAR     61  55  82 SE5       29.65R
PARIS          CLEAR     63  54  72 S9        29.64F
HUNTINGDON     CLEAR     66  55  68 S9        29.64S
LEXINGTON      CLEAR     61  55  82 CALM      29.66S
SAVANNAH       CLEAR     66  57  72 S8        29.66S
$$

TNZ008-025-027-028-033-062-065-066-260700-
NORTH MIDDLE TENNESSEE

CITY           SKY/WX    TMP DP  RH WIND       PRES   REMARKS
NASHVILLE      CLEAR     61  55  81 S5        29.68F
PORTLAND       CLEAR     63  55  77 S7        29.67F
CLARKSVILLE    CLEAR     62  55  77 S5        29.66R
SMYRNA         CLEAR     59  56  89 S5        29.70S
COOKEVILLE     CLEAR     54  54 100 CALM      29.71F
GALLATIN       CLEAR     57  55  94 CALM      29.71F
CROSSVILLE     CLEAR     56  53  90 S3        29.77F
$$

TNZ061-075-076-078-094-096-097-260700-
SOUTH MIDDLE TENNESSEE

CITY           SKY/WX    TMP DP  RH WIND       PRES   REMARKS
FAYETTEVILLE   CLEAR     63  57  82 S8        29.72S
TULLAHOMA      CLEAR     55  54  94 CALM      29.73S
WINCHESTER     CLEAR     57  54  88 SE8       29.73F
MCMINNVILLE    CLEAR     54  54 100 CALM      29.72F
COLUMBIA       CLEAR     63  63 100 S6        29.68R
SHELBYVILLE    CLEAR     61  55  82 SE5       29.71F
$$

TNZ017-018-042-046-047-260700-
NORTHEAST TENNESSEE

CITY           SKY/WX    TMP DP  RH WIND       PRES   REMARKS
TRI CITIES     CLEAR     52  50  93 CALM      29.78F FOG
ELIZABETHTON   CLEAR     54  54 100 E3        29.78F
$$

TNZ012-013-036-069-073-074-260700-
CENTRAL EAST TENNESSEE

CITY           SKY/WX    TMP DP  RH WIND       PRES   REMARKS
KNOXVILLE      NOT AVBL
OAK RIDGE      CLEAR     56  54  93 CALM      29.77F
DOWNTOWN KNOXV CLEAR     55  55 100 CALM      29.76S FOG
GATLINBURG     CLEAR     54  52  94 CALM      29.76S
MORRISTOWN     CLEAR     54  54 100 CALM      29.76S
JACKSBORO      CLEAR     54  54 100 CALM      29.79F FOG
$$

TNZ083-085-099-260700-
SOUTHEAST TENNESSEE

CITY           SKY/WX    TMP DP  RH WIND       PRES   REMARKS
CHATTANOOGA    CLEAR     60  56  86 CALM      29.75F
$$

SKY/WX REPORTED AS FAIR MEANS FEW OR NO CLOUDS BELOW
12 THOUSAND FEET.





USA.gov is the U.S. government's official web portal to all federal, state and local government web resources and services.